Theta_e
324 334 342 343 343 343 342 342 342 342 343 344 345 345 345 345 345 345 345 346 348 349 349 349 349 349 348 347 345 343 343 344 342 339 338 340 340 340 339 341 346 345 347
325 332 338 338 339 338 337 337 337 337 337 338 338 339 338 339 338 339 341 343 345 347 347 348 347 347 347 348 347 345 342 342 343 340 338 334 337 339 339 340 345 345 346
322 326 331 335 335 334 334 333 333 333 334 335 334 333 334 333 333 335 336 337 339 341 343 345 345 344 343 344 345 346 345 345 343 341 339 337 333 338 339 339 341 344 345
320 323 326 332 331 331 331 330 329 330 330 330 330 330 330 330 330 330 330 330 332 334 335 336 337 337 337 338 341 343 344 343 343 341 341 338 334 333 338 339 339 342 343
319 322 325 329 328 328 328 327 327 326 327 326 326 326 326 325 326 326 326 327 328 329 330 331 330 330 330 331 334 337 338 336 337 341 341 339 338 335 338 340 339 340 342
316 320 325 326 326 326 325 325 324 323 323 323 322 323 322 322 322 323 324 324 324 325 325 326 326 326 326 326 328 329 329 330 329 339 341 339 339 338 340 339 344 342 341
312 315 320 325 324 323 323 323 321 321 320 319 320 319 318 318 319 320 320 320 321 321 322 322 321 321 321 320 321 321 321 322 323 327 336 341 340 340 342 341 341 345 343
309 310 312 319 322 320 320 319 318 318 317 316 315 315 314 315 315 316 317 317 317 317 318 317 317 317 316 315 316 316 315 319 322 323 325 333 338 341 343 342 342 344 346
306 306 306 308 313 315 315 315 314 314 313 312 311 310 309 309 311 311 312 313 313 314 314 314 314 313 312 312 312 311 311 310 308 312 323 330 332 337 342 343 343 344 345
301 301 300 301 304 306 309 311 310 310 309 309 307 305 304 304 304 306 306 308 309 310 310 310 310 309 308 308 308 308 307 305 304 308 311 320 324 335 338 340 342 343 344
298 298 298 298 300 300 302 303 305 305 305 303 302 301 298 299 298 300 303 304 305 305 306 306 306 305 303 303 304 305 303 303 303 304 306 310 315 323 331 335 339 341 342
296 296 297 297 298 299 298 298 298 298 297 297 298 297 297 297 299 297 298 299 300 300 302 303 303 301 299 299 300 301 301 302 302 303 304 308 312 316 321 327 331 334 337
296 297 297 297 297 298 297 297 297 296 296 296 297 296 296 295 295 295 296 295 296 296 296 297 297 297 297 298 298 299 300 301 301 302 303 306 309 313 316 319 325 329 332
296 297 297 297 297 297 297 296 296 296 295 295 295 296 296 295 295 294 294 295 295 296 296 296 296 296 296 297 297 298 299 299 299 300 301 303 306 310 314 316 319 323 328
296 296 296 296 296 296 296 295 295 295 295 294 295 295 296 295 294 294 294 294 294 295 295 295 295 295 295 296 296 297 297 298 298 299 300 301 304 307 311 314 316 318 322
296 296 296 296 296 296 295 295 295 294 294 294 294 295 295 295 294 293 293 293 293 294 295 295 294 294 294 294 294 295 295 296 297 298 299 300 302 304 307 311 314 316 318
296 297 296 296 296 295 294 295 294 295 294 294 294 294 294 294 293 293 293 293 293 294 294 294 294 294 293 293 293 294 294 295 296 296 298 299 300 301 304 307 310 313 315
296 296 296 297 295 294 294 294 293 294 293 293 294 294 293 293 292 292 292 292 293 293 293 292 292 292 292 292 292 292 294 294 295 296 297 297 298 300 301 304 306 308 310
297 296 296 296 295 294 293 293 293 293 293 293 293 292 292 292 292 292 292 292 293 292 292 291 291 291 290 291 291 292 293 293 294 295 295 296 298 300 301 303 304 305 308
297 297 296 295 294 293 293 292 292 292 292 292 292 291 292 292 291 292 292 291 291 291 290 290 289 290 290 290 290 291 292 293 294 295 296 297 298 300 302 302 302 303 305
295 295 294 294 293 292 291 291 291 291 290 290 290 291 291 290 291 291 291 290 290 289 288 288 288 288 289 290 289 290 291 293 294 295 295 298 298 297 298 298 299 301 302
295 294 293 294 292 292 292 291 290 290 289 290 290 290 290 290 291 291 290 289 289 288 287 287 287 287 288 290 287 288 287 290 294 293 296 294 296 296 296 297 298 299 300
293 293 293 293 293 292 292 290 289 289 289 289 289 289 289 289 290 290 289 289 288 287 287 287 287 286 285 288 289 287 285 284 287 293 292 294 294 294 296 296 296 298 299
291 292 293 292 292 292 291 290 289 289 288 289 288 288 288 288 289 289 289 288 288 288 287 287 289 288 287 285 288 289 290 288 284 284 291 291 293 293 294 295 296 297 298
290 290 291 291 291 291 290 290 289 288 288 288 287 286 286 288 288 288 288 288 287 288 288 288 288 288 288 287 287 288 288 288 289 285 283 287 291 293 294 294 296 296 296
289 289 289 289 290 290 290 289 289 288 288 286 286 286 286 286 286 287 287 287 287 288 288 288 289 288 288 288 288 288 287 286 285 286 285 286 287 290 293 294 294 295 297
Wind_Speed
2 3 13 17 18 20 18 18 19 18 18 17 17 17 17 16 16 15 14 14 14 14 12 12 12 12 10 7 6 6 6 7 7 8 8 9 9 7 6 7 9 7 6
3 8 13 16 19 19 18 16 16 17 17 17 17 17 17 16 16 15 14 14 14 14 14 14 15 15 15 14 8 4 4 5 5 5 6 6 7 7 5 6 8 7 6
7 7 12 15 19 18 17 17 16 17 17 17 17 17 16 16 15 15 16 15 14 14 15 16 15 16 15 14 14 13 6 2 3 4 4 4 4 6 4 4 6 6 6
8 9 10 14 18 18 17 17 15 17 17 18 17 17 17 17 16 16 15 15 15 14 14 14 14 14 14 14 14 13 13 14 5 2 1 2 2 4 5 3 5 6 6
8 7 9 14 18 17 16 17 18 18 18 17 17 17 17 16 16 16 16 16 15 15 15 15 14 14 13 13 12 13 14 14 13 4 2 3 3 3 5 4 4 5 6
7 6 10 15 17 16 16 17 18 18 18 18 17 17 17 17 16 16 16 16 15 15 15 15 15 15 14 14 14 13 14 13 10 7 4 3 5 6 7 6 5 6 6
7 6 8 14 16 16 16 17 17 18 18 18 18 18 17 17 16 17 16 16 16 15 15 15 14 15 15 15 15 15 14 13 7 6 6 5 5 9 9 8 8 8 7
9 8 9 11 14 15 16 17 17 17 17 17 18 18 18 17 17 17 17 16 16 15 15 15 15 15 15 15 15 16 16 15 7 6 7 6 8 11 11 10 9 9 10
7 8 7 8 11 15 15 15 16 17 17 17 17 17 17 17 17 17 17 17 17 16 16 15 15 15 15 15 15 16 16 14 9 6 7 5 11 13 14 13 11 11 10
6 6 6 6 7 8 7 14 15 16 17 16 16 16 16 15 15 16 15 16 16 15 16 16 16 16 16 15 15 15 14 10 9 7 6 5 15 15 13 14 14 14 12
4 5 4 5 6 7 7 8 11 14 15 13 12 13 10 7 8 11 14 15 15 15 15 15 15 15 14 13 14 15 12 6 8 6 5 11 15 16 15 16 15 16 15
6 4 4 5 5 5 6 6 6 7 7 7 6 7 6 7 7 7 9 13 13 14 14 15 15 13 11 7 6 9 5 8 5 6 5 14 15 15 16 16 16 16 17
5 4 5 5 5 5 5 4 3 3 3 4 6 6 6 5 4 4 4 5 5 9 6 8 8 7 10 7 7 7 7 7 5 5 8 14 16 16 16 17 17 18 18
7 7 6 6 5 5 3 3 3 3 3 3 4 5 4 3 4 4 4 5 5 5 7 7 6 8 9 9 9 9 9 8 6 6 8 14 16 17 17 18 18 18 18
7 6 7 6 6 5 5 3 3 3 3 3 3 4 4 4 4 4 4 4 5 5 6 7 7 8 9 9 9 9 9 9 9 6 6 14 16 17 18 18 19 19 19
7 8 6 7 6 6 4 4 3 3 3 3 3 3 4 3 3 3 3 4 4 5 5 6 7 7 7 8 9 9 10 9 10 10 8 10 16 17 18 19 19 19 20
7 7 8 7 6 5 5 4 3 3 3 3 2 3 3 3 3 3 3 3 4 4 6 6 7 7 7 7 10 9 9 10 10 11 9 9 10 15 16 17 18 18 19
6 9 7 7 7 6 5 4 3 3 2 2 2 2 3 3 3 3 3 4 4 4 5 7 7 8 7 8 9 9 8 9 11 10 9 8 8 8 11 14 16 17 19
10 8 8 7 8 6 5 3 3 3 2 2 1 1 3 3 4 3 3 3 5 5 5 6 7 7 9 9 10 10 9 9 9 7 8 8 8 8 6 10 13 15 15
8 7 5 6 7 6 4 3 2 1 1 1 1 0 2 2 3 3 3 4 5 5 6 7 9 7 8 9 11 11 8 8 6 5 5 5 5 5 5 6 7 7 12
6 7 8 9 8 6 2 2 1 2 1 1 1 1 1 1 2 2 2 4 5 5 7 8 8 10 6 8 8 7 5 5 2 2 5 2 3 5 7 8 6 6 7
8 6 7 8 9 5 2 2 2 2 1 0 0 1 0 1 2 3 3 4 4 5 6 7 7 6 4 7 5 6 6 2 0 8 1 5 3 6 9 9 10 11 9
7 8 8 7 7 5 5 3 2 2 1 1 1 1 1 1 2 2 3 3 3 3 4 5 5 6 7 7 7 3 5 4 12 1 8 4 9 10 8 10 12 12 11
4 6 6 7 7 5 6 3 5 3 3 2 1 1 2 2 3 3 4 4 4 3 5 5 5 7 6 8 6 4 7 8 5 9 3 10 12 8 12 10 11 11 11
4 5 5 5 4 4 5 5 4 4 3 2 2 3 3 3 3 3 4 4 5 4 5 6 7 7 6 6 6 6 7 7 9 9 14 10 11 10 10 11 10 10 12
1 2 3 4 4 4 4 5 6 6 5 4 3 3 2 2 3 4 5 5 5 6 6 7 7 8 8 8 7 7 7 7 7 8 11 12 14 13 11 10 10 10 10
Wind_Direction
0 51 85 89 86 84 79 76 77 77 76 74 73 70 69 66 63 56 53 49 47 55 55 50 47 45 42 50 51 56 66 64 59 56 48 39 38 42 25 12 6 24 37
91 78 85 91 88 83 81 85 86 87 87 83 77 72 68 63 60 58 56 49 45 47 51 57 53 48 40 34 29 41 60 71 68 59 53 40 24 30 24 2 6 19 9
81 78 96 96 94 96 91 84 81 82 83 84 83 79 77 72 67 64 60 53 48 45 40 43 45 43 35 30 29 29 17 58 64 73 46 25 21 14 9 346 341 6 9
91 87 90 100 97 95 95 90 86 83 82 80 76 72 71 69 63 60 55 53 54 51 46 41 39 37 33 22 20 26 32 22 359 66 73 341 358 341 357 319 312 329 356
78 76 93 100 99 100 98 95 86 84 80 79 76 72 68 64 64 60 59 53 49 48 48 45 42 39 37 32 22 17 24 19 4 325 341 307 318 321 326 310 285 296 324
76 75 99 97 99 99 97 91 87 84 80 76 74 71 68 63 59 58 57 54 49 44 42 41 40 36 33 28 27 24 15 8 0 356 336 325 306 316 313 313 279 257 268
88 64 81 93 96 96 94 90 83 82 79 75 72 69 65 64 59 56 53 50 48 44 40 37 32 30 27 25 24 20 17 5 358 345 339 327 314 309 306 301 294 275 253
97 71 59 66 86 89 87 88 83 81 77 74 72 67 63 61 59 55 52 49 43 41 39 35 31 28 25 22 19 16 12 11 12 359 339 324 330 312 295 286 284 281 266
100 93 79 74 73 87 85 87 84 83 78 74 70 67 65 57 58 55 49 47 41 38 36 32 30 27 25 20 17 13 9 9 3 352 345 339 334 315 305 294 286 279 283
110 110 103 92 91 84 79 88 84 83 79 76 71 70 67 60 55 53 48 43 41 37 35 29 26 23 21 18 15 11 6 3 359 345 342 348 344 339 316 302 299 291 278
136 134 126 109 103 102 91 75 78 79 78 74 67 69 66 60 53 46 46 40 38 33 31 27 25 22 15 12 10 7 4 3 350 343 329 337 331 323 321 320 326 320 294
173 163 139 130 121 105 99 88 81 80 76 75 72 68 69 63 55 55 46 39 33 29 25 22 19 17 14 6 358 1 0 349 345 331 317 327 323 318 312 307 310 313 311
170 158 163 146 135 120 114 110 98 90 88 81 75 70 69 70 55 44 38 31 24 20 19 13 10 12 4 360 355 350 344 341 331 321 315 319 318 313 305 299 297 296 295
175 175 168 161 145 132 122 113 112 100 85 77 70 69 62 56 49 38 34 25 22 12 6 7 1 355 355 351 345 339 336 331 325 316 308 309 311 309 305 298 292 289 290
189 181 183 169 160 145 132 122 109 103 100 95 76 67 63 55 48 29 26 20 19 2 3 357 353 350 345 341 335 328 323 318 313 306 303 304 304 304 301 298 294 289 285
190 189 174 183 168 154 145 141 133 127 115 92 81 65 65 61 41 29 22 15 10 0 353 348 345 338 333 330 325 322 313 307 302 299 298 300 300 302 300 297 295 294 291
196 176 186 178 169 162 154 145 142 141 121 114 101 83 75 64 48 27 12 7 3 356 344 342 338 334 327 325 319 314 307 299 295 293 291 294 303 303 302 301 300 297 296
171 189 177 179 167 162 159 155 148 145 141 136 118 109 58 56 48 30 8 6 356 350 345 341 339 333 326 323 316 309 301 296 293 290 290 293 297 299 302 305 306 304 301
193 178 186 172 166 161 156 147 147 148 147 135 125 90 44 29 34 25 17 360 353 345 347 342 336 333 324 322 315 310 303 295 296 301 296 293 292 299 306 310 312 311 309
186 179 156 160 160 154 134 126 112 134 175 159 143 112 39 24 23 26 2 354 349 343 344 342 331 328 315 315 313 302 293 287 292 284 293 297 305 315 337 337 333 328 321
169 168 169 165 167 151 144 153 185 215 179 184 190 165 36 19 29 15 353 344 350 348 341 340 332 331 330 335 319 321 298 290 231 309 303 333 12 355 344 336 335 329 327
169 170 159 173 167 169 146 151 151 156 159 153 170 267 195 46 13 334 346 336 340 335 340 344 344 331 315 352 327 304 330 323 8 319 115 344 341 339 334 335 330 324 320
163 170 170 168 161 169 165 129 105 83 83 233 204 220 181 342 331 328 317 311 308 312 319 324 329 338 322 322 333 309 319 323 340 4 326 351 335 321 316 325 319 314 310
165 155 156 165 171 179 164 169 187 192 204 207 191 205 280 291 299 306 301 302 296 298 303 310 323 315 309 312 316 269 265 280 300 308 291 313 303 312 314 311 309 300 302
149 167 167 160 167 174 181 200 200 213 217 193 219 251 269 280 281 294 299 298 292 291 289 281 303 301 286 280 277 283 289 278 267 271 292 301 299 298 300 293 289 289 292
204 170 158 172 211 212 210 214 217 221 216 216 231 250 263 275 290 296 306 299 294 284 282 285 283 276 276 276 277 273 266 272 281 282 285 293 295 304 299 294 293 286 281